Temperature
12 12 12 12 12 12 12 12 12 12 12 12 12 12 12 11 12 12 12 12 12 12 12 11 11 12 12 12 12 12 12 12 12 12 12 11 11 11 11 11 11 11 11
12 12 12 12 12 12 12 12 12 12 12 11 11 11 11 11 11 11 11 11 11 11 11 11 11 11 11 11 11 11 11 11 11 11 11 11 11 11 11 11 10 10 10
11 12 12 12 12 12 12 12 11 11 11 11 11 11 11 11 11 11 11 11 11 11 11 11 11 11 11 11 11 11 11 11 11 11 11 11 11 11 10 10 10 10 10
11 11 11 11 11 11 11 11 11 11 11 11 11 11 11 11 11 11 11 11 11 11 11 11 11 11 11 11 11 11 11 11 11 11 11 11 10 10 10 10 10 10 10
10 11 11 11 11 11 11 11 11 10 10 10 10 10 10 10 10 10 10 10 10 10 10 11 11 11 11 11 10 10 10 10 10 10 10 10 10 10 10 10 10 9 9
10 10 10 10 10 10 10 10 10 10 10 10 10 10 10 10 10 10 10 10 10 10 10 10 10 10 10 10 10 10 10 10 10 10 10 10 10 10 10 9 9 9 9
9 10 10 10 10 10 10 10 10 10 9 9 9 9 9 9 9 10 10 10 10 10 10 10 10 10 10 10 10 10 10 10 10 9 9 9 9 9 9 9 9 9 9
9 9 9 9 9 9 9 9 9 9 9 9 9 8 8 9 9 9 9 9 9 9 9 9 9 10 10 9 9 9 10 9 9 9 9 9 9 9 9 9 9 9 9
8 9 9 9 9 9 9 9 9 9 9 9 9 9 9 9 9 9 9 9 9 9 9 9 9 9 9 9 9 9 9 9 9 9 9 9 9 9 9 8 8 8 8
8 8 8 8 8 9 9 9 9 9 8 8 8 9 9 9 8 8 8 9 9 9 9 9 9 9 9 9 9 9 9 9 9 9 9 9 8 8 8 8 8 8 8
7 7 8 8 8 8 8 8 8 8 8 8 8 8 8 9 8 8 8 8 8 8 8 8 9 9 9 9 9 9 9 9 9 9 8 8 8 8 8 8 8 8 8
7 7 7 7 8 8 8 8 8 8 8 8 8 8 8 8 8 8 8 8 8 8 8 8 8 8 8 9 9 9 9 9 8 8 8 8 8 8 8 7 7 7 7
6 6 7 7 7 7 7 7 7 7 7 7 8 8 8 8 8 8 8 8 7 8 8 8 8 8 8 8 8 8 8 8 8 8 8 8 8 8 8 7 7 7 7
6 6 6 6 7 7 7 7 7 7 7 7 7 7 7 7 8 8 8 8 7 7 7 7 8 8 8 8 8 8 8 8 8 8 8 8 8 8 7 7 7 7 6
5 5 6 6 6 6 6 6 6 6 7 7 7 7 7 7 7 7 7 7 7 7 7 7 7 7 7 7 7 7 7 7 7 7 7 7 7 7 7 7 6 6 6
5 5 5 6 6 6 6 6 6 6 6 6 6 7 7 7 7 7 7 7 7 7 7 7 7 7 7 7 7 7 7 7 7 7 7 7 7 7 7 6 6 6 6
4 5 5 5 5 5 5 5 5 6 6 6 6 6 6 6 6 6 6 6 6 6 6 7 6 7 7 7 7 7 7 7 7 7 7 6 6 6 6 6 6 6 6
4 4 4 4 4 5 5 5 5 5 5 5 6 6 6 6 6 6 6 6 6 6 6 6 6 6 6 6 6 6 6 6 6 6 6 6 6 6 6 6 5 5 5
4 4 4 4 4 4 4 4 5 5 5 5 5 5 5 6 6 6 6 6 6 6 6 5 6 6 6 6 6 6 6 6 6 6 6 6 5 5 5 5 5 5 5
3 3 4 4 4 4 4 4 4 4 5 5 5 5 5 5 5 6 5 5 5 5 5 5 5 5 5 5 5 5 5 5 5 5 5 5 5 5 5 5 5 4 4
3 3 3 3 3 3 3 3 4 4 4 4 4 4 5 5 5 5 5 5 5 5 5 5 4 4 5 5 4 4 4 4 4 4 4 4 4 4 4 4 4 4 4
2 2 2 3 3 3 3 3 3 3 4 4 4 4 4 4 4 5 5 5 5 4 4 4 4 4 4 4 4 4 4 4 3 4 4 4 4 3 3 3 3 3 3
2 2 2 2 2 3 3 3 3 3 3 3 3 3 4 4 4 4 4 4 4 4 4 4 4 4 4 4 4 3 3 3 3 3 3 3 3 3 3 3 3 3 2
1 2 2 2 2 2 2 2 2 2 2 3 3 3 3 3 3 4 3 3 3 3 3 3 3 3 3 3 3 3 3 3 3 3 2 2 2 2 2 2 2 2 2
1 1 1 1 1 1 1 1 2 2 2 2 2 2 2 2 3 3 3 3 3 3 3 3 3 3 3 3 3 2 2 2 2 2 2 2 2 2 2 2 2 2 2
0 1 1 1 1 1 1 1 1 1 1 1 1 1 2 2 2 2 2 2 2 2 2 2 2 2 2 2 2 2 2 2 1 1 1 1 1 1 1 1 1 1 1
Wind_Speed
6 6 5 6 6 7 7 7 7 7 7 7 6 6 6 6 6 7 8 9 8 8 8 9 9 9 8 9 8 8 8 8 8 7 8 8 8 8 8 8 9 9 9
6 6 6 6 6 7 7 7 7 7 6 6 6 6 6 6 6 6 7 8 8 7 7 7 7 7 7 8 8 8 7 7 7 7 7 7 7 7 7 7 7 7 8
7 6 6 6 6 7 8 7 8 7 6 6 5 5 5 6 6 6 5 5 6 7 6 6 6 6 6 7 7 7 7 6 6 5 6 6 6 5 5 5 5 6 6
7 7 6 6 7 7 7 6 6 6 6 5 4 4 4 5 5 5 4 4 4 4 5 6 5 6 5 5 6 6 6 6 5 5 5 4 4 4 4 4 4 4 4
7 6 6 6 8 7 6 6 6 6 6 5 5 3 3 3 4 4 4 4 3 3 4 5 5 5 5 4 4 4 5 5 4 4 4 3 3 3 3 3 2 2 2
6 5 5 7 8 6 6 6 7 6 6 5 5 3 2 2 3 3 3 3 3 3 3 3 4 4 4 3 3 3 3 4 3 3 3 3 3 3 2 2 2 1 1
6 5 5 6 7 7 8 8 7 8 6 6 5 3 2 1 2 2 2 3 3 3 3 3 3 3 4 3 2 2 2 3 3 3 3 3 3 3 2 2 1 1 0
6 6 6 6 7 7 8 8 7 6 5 5 5 4 3 3 2 2 2 3 3 3 3 3 3 3 3 3 2 2 2 1 2 3 3 3 3 3 3 2 1 1 1
5 6 7 7 6 7 7 9 9 7 7 6 5 4 3 3 3 3 4 3 3 3 3 3 3 3 3 3 3 3 2 2 2 3 4 3 3 4 3 3 3 2 2
5 6 6 7 7 6 7 8 8 7 8 7 6 3 2 2 3 3 4 4 4 3 3 3 3 4 4 3 3 2 3 3 3 3 4 4 4 4 5 4 3 3 3
5 6 6 6 6 6 6 7 7 8 7 8 6 5 4 3 3 3 4 4 4 4 3 3 3 3 4 4 3 3 3 4 4 4 4 4 5 5 5 4 4 4 4
4 5 6 7 7 6 6 7 7 9 8 8 7 6 5 4 4 4 4 5 4 4 4 4 3 3 3 4 4 3 4 5 5 5 5 5 5 5 5 5 5 5 5
4 5 6 7 6 6 7 7 6 7 8 8 8 7 6 5 4 3 3 4 4 2 3 4 4 4 3 3 3 4 5 6 6 6 6 6 6 5 5 5 5 5 5
5 6 6 7 7 7 7 7 6 6 6 7 7 7 5 5 5 5 4 4 4 3 3 4 3 4 4 4 4 5 5 6 6 7 7 6 6 5 5 5 5 5 6
5 6 7 7 7 7 7 7 5 6 6 6 6 6 5 5 5 5 4 5 4 4 5 4 3 4 4 4 4 5 5 5 7 7 7 7 7 6 6 6 5 6 6
6 7 7 7 8 7 7 7 6 6 6 6 5 7 6 5 4 4 5 5 5 4 4 3 3 3 3 4 4 5 6 5 7 7 7 7 7 7 7 6 6 6 6
7 8 8 8 8 7 7 7 7 7 7 7 6 7 7 7 5 5 4 5 5 4 5 4 3 3 4 4 3 5 5 5 6 7 7 7 7 7 7 7 7 7 7
7 8 8 8 7 7 8 8 8 8 8 8 8 7 7 6 7 6 6 6 6 6 5 5 4 4 4 4 4 3 3 4 5 6 7 8 8 8 8 8 8 8 8
7 8 8 8 8 8 8 9 9 8 8 8 8 8 8 8 8 7 7 6 5 5 5 5 5 4 3 3 3 3 3 3 4 5 6 7 7 8 8 8 8 9 9
7 7 8 8 8 8 8 8 8 8 8 8 8 8 8 8 8 8 7 7 6 6 5 5 4 4 3 3 3 3 3 3 3 3 4 5 6 7 8 9 9 9 9
7 7 7 8 8 7 7 8 8 8 8 8 7 7 8 8 7 6 6 7 7 6 6 5 5 4 4 3 4 3 4 3 3 3 2 4 5 6 7 8 8 9 10
6 6 7 8 8 7 8 9 8 8 8 8 8 8 7 8 7 7 7 7 8 8 8 7 6 6 7 5 4 4 3 3 4 3 3 4 4 5 6 7 8 9 10
5 6 6 7 7 8 8 9 9 8 8 8 9 8 6 7 8 7 8 8 9 10 10 9 9 9 8 7 6 6 6 5 5 3 3 4 4 5 6 7 8 9 10
4 5 6 6 6 7 8 8 8 8 7 8 8 8 8 8 8 7 7 7 8 9 9 9 8 8 7 6 7 6 5 4 3 3 4 4 4 5 5 7 9 10 10
3 4 4 5 6 6 8 8 7 7 6 7 7 8 8 8 8 8 8 7 7 7 8 9 8 8 8 8 7 4 4 4 4 4 3 3 4 4 5 6 7 8 9
3 2 2 4 5 6 7 8 8 6 6 6 6 7 9 8 8 9 8 8 8 7 5 5 5 5 6 7 8 7 6 6 4 4 3 3 3 2 4 4 4 5 7
Wind_Direction
169 162 157 159 161 160 159 154 149 143 140 137 136 136 131 125 122 119 113 106 105 107 114 117 116 116 115 112 112 111 111 111 113 109 106 102 98 93 88 84 79 74 71
174 166 161 161 162 161 161 157 153 146 140 137 137 140 136 130 125 123 122 118 106 102 106 115 119 115 116 118 117 114 112 114 113 111 115 112 108 104 96 89 82 77 72
179 170 167 164 163 163 158 154 152 148 142 142 143 140 137 136 135 132 130 130 124 108 102 103 113 121 121 124 127 123 119 117 118 116 118 121 121 118 107 98 89 82 73
184 174 169 168 165 162 158 158 159 156 152 148 145 141 140 139 142 137 134 133 133 130 119 108 105 115 124 130 131 132 129 126 126 123 119 120 128 130 119 108 96 88 74
186 179 173 169 168 163 162 166 165 162 156 149 145 140 142 144 144 146 140 135 136 142 141 130 119 109 111 126 133 136 142 143 141 142 138 134 138 142 137 127 111 95 73
185 178 177 175 173 169 170 171 169 162 157 149 140 130 124 142 141 147 153 146 142 150 152 150 153 142 125 122 125 134 151 159 163 166 161 155 155 158 157 162 154 138 72
184 176 174 178 180 180 178 176 171 162 158 154 147 140 129 145 148 161 163 164 155 157 158 154 155 162 162 158 137 130 156 177 186 189 192 187 185 191 188 181 186 210 267
183 177 175 177 181 181 180 179 173 171 168 173 169 165 173 185 188 188 182 183 177 168 168 169 172 168 166 172 166 159 149 175 214 209 204 198 195 196 202 215 203 219 317
190 183 184 181 182 185 185 185 182 183 180 182 184 181 182 192 171 184 190 189 188 185 185 188 190 190 192 193 190 191 188 199 215 211 206 209 217 222 225 231 235 250 269
193 185 184 185 185 187 190 190 190 188 184 183 187 205 214 166 178 176 187 192 196 198 199 200 201 199 202 200 195 203 207 213 214 217 220 229 233 238 237 240 245 256 262
199 192 185 185 188 191 191 194 192 192 193 190 187 185 189 185 196 194 189 189 199 205 210 214 210 203 201 202 205 219 209 218 220 227 233 238 240 247 243 246 251 254 261
206 201 194 191 188 190 193 198 198 198 199 198 194 191 191 189 193 199 195 193 201 203 208 211 213 208 208 207 207 214 203 213 226 234 238 242 245 249 248 254 257 259 262
214 209 201 197 194 193 192 198 199 201 202 199 201 200 200 206 197 202 202 194 202 203 206 208 210 213 216 217 216 220 211 218 226 233 237 240 246 254 254 257 259 262 265
216 213 207 201 198 195 192 195 199 202 204 202 206 205 203 205 199 199 205 195 194 208 214 211 204 209 217 220 233 218 221 226 230 231 235 239 243 250 252 253 256 260 266
219 213 209 203 199 198 196 196 200 201 201 203 206 209 209 205 203 203 205 208 205 210 219 212 203 204 212 217 231 223 232 233 229 226 231 236 239 243 245 247 253 258 264
218 214 211 204 199 198 196 197 201 204 204 206 205 207 210 211 203 201 206 214 219 216 223 226 218 221 213 217 226 227 234 229 221 225 230 235 236 239 240 246 253 257 261
215 211 207 204 202 199 198 199 201 201 203 206 206 208 209 207 205 206 205 213 217 213 225 235 236 229 222 222 225 230 235 228 227 226 231 235 236 237 239 243 250 254 259
215 211 206 203 205 205 203 203 203 204 205 206 207 208 212 208 209 209 206 216 221 215 218 227 234 229 229 227 230 232 241 237 238 232 231 234 234 235 238 242 246 251 257
215 212 207 205 207 209 208 208 207 207 208 210 209 209 212 207 213 212 208 214 219 215 216 221 230 232 235 225 230 241 247 253 252 241 239 236 237 239 240 241 245 250 254
216 212 211 208 208 209 209 210 210 209 209 212 214 214 214 213 214 211 212 214 213 210 208 214 223 229 233 222 224 230 248 254 258 252 246 245 245 244 243 243 245 250 253
218 212 210 210 207 207 208 209 211 209 209 211 214 218 219 215 218 214 217 216 210 210 209 213 222 225 224 212 221 229 243 252 262 245 245 245 245 247 248 245 245 251 255
213 210 211 209 208 209 206 207 211 211 210 210 212 215 215 213 214 213 219 220 213 210 212 214 223 225 227 231 226 224 234 252 259 233 246 255 241 249 250 249 251 254 257
212 213 216 213 213 211 202 203 208 214 213 213 212 211 214 215 214 216 216 218 220 218 217 218 224 228 229 228 227 228 234 247 258 243 240 258 256 255 254 252 251 255 259
220 216 216 215 215 213 200 202 204 214 216 217 216 215 216 219 217 212 214 221 225 223 222 224 229 234 236 229 223 229 240 257 280 253 235 254 258 264 266 259 252 253 257
234 227 215 205 207 211 200 202 201 213 216 218 218 219 218 222 210 203 209 216 225 229 224 224 231 236 233 227 220 217 216 228 260 254 240 247 262 278 273 261 256 252 253
236 198 191 199 203 209 201 202 202 209 213 214 216 219 218 220 211 204 210 213 223 230 221 220 230 233 230 223 216 219 218 223 251 252 224 231 251 262 269 267 263 260 256
Height
1540 1542 1544 1546 1548 1549 1551 1552 1554 1555 1557 1558 1560 1561 1562 1563 1564 1565 1566 1567 1568 1569 1569 1570 1570 1570 1571 1571 1571 1570 1570 1570 1570 1570 1570 1570 1570 1569 1569 1569 1569 1568 1568
1537 1539 1541 1543 1546 1548 1549 1551 1553 1554 1556 1557 1559 1560 1561 1563 1564 1565 1566 1567 1568 1568 1569 1570 1570 1570 1571 1571 1571 1571 1571 1571 1571 1571 1571 1570 1570 1570 1570 1570 1569 1569 1568
1534 1537 1539 1541 1543 1545 1547 1549 1551 1553 1554 1556 1557 1559 1560 1562 1563 1564 1565 1566 1567 1568 1568 1569 1570 1570 1570 1570 1570 1571 1571 1571 1571 1571 1571 1571 1571 1570 1570 1570 1570 1569 1569
1532 1534 1536 1538 1541 1543 1545 1547 1549 1551 1553 1554 1556 1557 1559 1560 1562 1563 1564 1565 1566 1567 1567 1568 1569 1569 1569 1570 1570 1570 1570 1570 1571 1571 1570 1570 1570 1570 1570 1570 1570 1569 1569
1529 1531 1533 1536 1538 1540 1543 1545 1547 1549 1551 1552 1554 1556 1557 1558 1560 1561 1563 1564 1565 1565 1566 1567 1567 1568 1568 1569 1569 1570 1570 1570 1570 1570 1570 1570 1570 1570 1570 1570 1569 1569 1569
1525 1528 1530 1533 1535 1538 1540 1542 1544 1546 1548 1550 1552 1554 1556 1557 1558 1559 1561 1562 1563 1564 1564 1565 1566 1566 1567 1568 1568 1568 1569 1569 1569 1569 1569 1569 1569 1569 1569 1569 1569 1568 1568
1522 1524 1527 1530 1532 1534 1537 1539 1541 1543 1546 1548 1550 1552 1554 1555 1556 1557 1558 1560 1561 1562 1562 1563 1564 1565 1565 1566 1566 1567 1567 1568 1568 1568 1568 1568 1568 1568 1568 1568 1568 1567 1567
1518 1521 1524 1526 1528 1531 1533 1536 1538 1540 1542 1545 1547 1550 1553 1555 1553 1555 1556 1557 1558 1559 1560 1561 1562 1562 1563 1564 1564 1565 1565 1566 1566 1566 1567 1567 1567 1567 1566 1566 1566 1566 1565
1514 1517 1520 1523 1525 1527 1529 1532 1534 1537 1539 1542 1544 1547 1549 1550 1551 1553 1553 1555 1556 1557 1558 1559 1559 1560 1561 1561 1562 1563 1563 1564 1564 1564 1565 1565 1565 1565 1565 1564 1564 1564 1563
1511 1513 1516 1519 1521 1523 1526 1528 1530 1533 1536 1537 1540 1542 1545 1546 1549 1550 1551 1552 1553 1554 1555 1556 1557 1558 1558 1559 1560 1560 1561 1561 1562 1562 1563 1563 1563 1563 1562 1562 1562 1561 1561
1507 1509 1512 1515 1517 1519 1522 1524 1527 1529 1532 1534 1536 1538 1541 1543 1545 1547 1548 1549 1550 1551 1552 1553 1554 1555 1556 1556 1557 1557 1558 1559 1559 1560 1560 1560 1560 1560 1560 1560 1559 1559 1558
1503 1505 1508 1511 1513 1516 1518 1520 1523 1526 1528 1531 1533 1535 1537 1539 1541 1543 1544 1545 1547 1548 1549 1550 1551 1552 1553 1553 1554 1555 1555 1556 1556 1557 1557 1557 1557 1557 1557 1557 1556 1556 1555
1499 1501 1504 1507 1509 1512 1514 1517 1519 1522 1524 1527 1529 1531 1533 1535 1538 1540 1542 1543 1544 1545 1546 1547 1548 1549 1550 1550 1551 1552 1552 1553 1553 1554 1554 1554 1554 1554 1554 1553 1553 1552 1552
1495 1497 1500 1502 1505 1508 1510 1513 1515 1518 1520 1523 1525 1527 1529 1532 1534 1536 1538 1540 1541 1542 1543 1544 1544 1545 1546 1547 1548 1549 1549 1550 1550 1550 1551 1551 1551 1550 1550 1550 1549 1549 1548
1491 1494 1496 1498 1501 1503 1506 1509 1511 1514 1517 1519 1521 1524 1525 1528 1530 1532 1534 1536 1538 1538 1539 1540 1541 1542 1543 1544 1544 1545 1546 1546 1546 1547 1547 1547 1547 1547 1546 1546 1546 1545 1545
1487 1489 1491 1493 1496 1499 1502 1504 1507 1510 1512 1515 1517 1520 1521 1523 1525 1528 1530 1532 1534 1535 1536 1536 1537 1538 1539 1540 1541 1541 1542 1542 1542 1543 1543 1543 1543 1542 1542 1542 1542 1541 1541
1482 1484 1486 1489 1491 1494 1497 1500 1502 1505 1508 1510 1512 1515 1517 1519 1521 1523 1525 1527 1529 1531 1531 1532 1534 1534 1535 1536 1537 1537 1538 1538 1538 1539 1539 1539 1538 1538 1538 1538 1538 1537 1537
1477 1479 1481 1483 1486 1489 1492 1494 1497 1500 1503 1505 1507 1510 1512 1515 1516 1518 1520 1522 1524 1526 1527 1527 1529 1530 1531 1532 1532 1533 1533 1534 1534 1534 1535 1535 1534 1534 1534 1534 1533 1533 1532
1472 1474 1476 1479 1481 1484 1487 1489 1492 1495 1498 1500 1503 1504 1507 1509 1511 1513 1515 1517 1519 1521 1522 1523 1524 1525 1526 1527 1528 1528 1529 1529 1529 1530 1530 1530 1530 1530 1529 1529 1529 1528 1528
1466 1469 1471 1474 1476 1479 1481 1484 1487 1490 1492 1495 1497 1499 1502 1504 1506 1508 1510 1512 1514 1515 1517 1518 1519 1520 1522 1522 1523 1523 1524 1524 1525 1525 1525 1525 1525 1525 1525 1524 1524 1523 1523
1461 1463 1466 1468 1470 1473 1475 1478 1481 1484 1486 1489 1491 1494 1496 1498 1500 1503 1505 1506 1508 1510 1511 1512 1514 1515 1516 1517 1518 1518 1519 1519 1519 1520 1519 1519 1519 1519 1519 1519 1518 1518 1517
1456 1458 1460 1462 1464 1467 1469 1472 1475 1478 1480 1483 1485 1488 1490 1493 1495 1497 1499 1501 1503 1504 1505 1507 1508 1509 1510 1512 1513 1513 1514 1514 1513 1515 1514 1514 1514 1514 1513 1513 1513 1512 1511
1451 1452 1454 1456 1458 1461 1464 1467 1470 1472 1475 1477 1480 1482 1484 1486 1489 1491 1492 1495 1496 1498 1500 1501 1502 1503 1504 1506 1507 1508 1509 1508 1508 1509 1509 1508 1508 1507 1508 1507 1507 1506 1506
1445 1446 1448 1450 1453 1455 1458 1461 1464 1467 1469 1472 1474 1476 1478 1480 1483 1485 1486 1488 1489 1491 1493 1495 1496 1497 1499 1500 1502 1503 1503 1503 1503 1503 1504 1502 1502 1502 1502 1501 1501 1501 1500
1440 1440 1441 1444 1447 1449 1452 1455 1458 1461 1463 1466 1468 1471 1473 1475 1477 1479 1481 1482 1483 1485 1487 1489 1490 1492 1493 1494 1495 1496 1497 1497 1496 1496 1498 1497 1496 1496 1495 1495 1495 1495 1494
1435 1436 1438 1440 1442 1445 1447 1450 1453 1456 1458 1460 1463 1465 1467 1469 1471 1473 1475 1476 1477 1479 1480 1482 1484 1485 1487 1488 1489 1490 1490 1491 1490 1490 1491 1492 1491 1490 1489 1488 1489 1488 1488